Main page
METAR-TAF:

METAR-TAF

Airports :

Jammu Airport

Jammu, India

latitude: 32-41-21N, longitude: 74-50-15E, elevation: 314 m

Current weather observation

The report was made 1 hour and 31 minutes ago, at 07:30 UTC
Wind 2 kt from variable directions
Temperature 25°C
Humidity 36%
Pressure 1014 hPa
Visibility: 6000 m
Few clouds at a height of 3000 ft
Scattered clouds at a height of 10000 ft

METAR: VIJU 180730Z VRB02KT 6000 FEW030 SCT100 25/09 Q1014 NOSIG

Time: 14:31 (09:01 UTC)


TAF: missing

Weather observations and forecasts of more than 4000 airports (METAR and TAF reports).

The available stations are represented by yellow and red dots on the map.

Hover mouse over dot to see the name of the station.

Then click to see weather observations and forecasts.

To change the map : click on the green buttons with a black cross to zoom in, on the green button with a dash to zoom out, or on the green arrows for adjacent maps.


METAR-TAF: